FDX411 TJSJ-SKBO

Flight info

Callsign FDX411
Flight time N/A
Altitude 32000
Route GANBO1 SCAPA UL325 ENPUT DCT DOPLO DOPLO4E
Aircraft MD11/H-SDE1E2E3FGHIJ2J3J4J5M1RWXY/LB1D1

Departure

Time 2026-04-30 01:24
Airport Luis Munoz Marin International Airport (TJSJ)

Arrival

Time N/A
Airport El Dorado International Airport (SKBO)
Time Latitude Longitude Altitude Speed Heading
2026-04-30 00:51 18.43719 -65.99435 -16 ft 0 kts 90°
2026-04-30 01:08 18.43719 -65.99457 -20 ft 4 kts 90°
2026-04-30 01:08 18.43719 -65.99486 -16 ft 4 kts 90°
2026-04-30 01:09 18.43719 -65.99504 -16 ft 4 kts 117°
2026-04-30 01:09 18.43727 -65.99515 -18 ft 4 kts 174°
2026-04-30 01:09 18.43752 -65.99516 -16 ft 4 kts 180°
2026-04-30 01:09 18.43775 -65.99516 -17 ft 1 kts 180°
2026-04-30 01:10 18.43776 -65.99516 -17 ft 0 kts 180°
2026-04-30 01:16 18.43774 -65.99516 -16 ft 3 kts 180°
2026-04-30 01:16 18.43681 -65.99518 -18 ft 17 kts 188°
2026-04-30 01:16 18.43559 -65.99549 -19 ft 17 kts 184°
2026-04-30 01:16 18.43503 -65.99554 -20 ft 0 kts 191°
2026-04-30 01:17 18.43484 -65.99563 -20 ft 16 kts 206°
2026-04-30 01:17 18.43452 -65.99607 -22 ft 0 kts 268°
2026-04-30 01:17 18.43459 -65.99661 -22 ft 16 kts 277°
2026-04-30 01:17 18.43465 -65.99798 -22 ft 19 kts 271°
2026-04-30 01:18 18.43465 -65.99919 -21 ft 15 kts 270°
2026-04-30 01:18 18.43465 -66.00059 -22 ft 24 kts 270°
2026-04-30 01:18 18.43465 -66.00216 -25 ft 20 kts 271°
2026-04-30 01:18 18.43467 -66.00379 -23 ft 19 kts 270°
2026-04-30 01:19 18.43468 -66.00524 -21 ft 21 kts 270°
2026-04-30 01:19 18.43467 -66.00693 -21 ft 26 kts 270°
2026-04-30 01:19 18.43467 -66.00886 -20 ft 24 kts 270°
2026-04-30 01:19 18.43467 -66.01044 -22 ft 16 kts 270°
2026-04-30 01:20 18.43466 -66.01149 -24 ft 14 kts 270°
2026-04-30 01:20 18.43466 -66.01224 -24 ft 6 kts 270°
2026-04-30 01:20 18.43466 -66.01308 -23 ft 16 kts 269°
2026-04-30 01:20 18.43468 -66.01385 -23 ft 0 kts 276°
2026-04-30 01:21 18.43468 -66.01386 -23 ft 1 kts 277°
2026-04-30 01:21 18.43478 -66.01417 -27 ft 11 kts 294°
2026-04-30 01:21 18.43513 -66.01434 -24 ft 11 kts
2026-04-30 01:21 18.43594 -66.01435 -23 ft 8 kts 359°
2026-04-30 01:22 18.43666 -66.01436 -23 ft 13 kts 359°
2026-04-30 01:22 18.43742 -66.01443 -48 ft 4 kts 329°
2026-04-30 01:22 18.43749 -66.01467 -52 ft 11 kts 284°
2026-04-30 01:22 18.43786 -66.01536 -50 ft 10 kts 319°
2026-04-30 01:23 18.43826 -66.01541 -53 ft 12 kts 17°
2026-04-30 01:23 18.43883 -66.01473 -37 ft 8 kts 65°
2026-04-30 01:23 18.43904 -66.01419 -49 ft 17 kts 68°
2026-04-30 01:23 18.44047 -66.01059 -44 ft 89 kts 66°
2026-04-30 01:24 18.44376 -66.00251 -45 ft 152 kts 67°
2026-04-30 01:24 18.44857 -65.99066 155 ft 192 kts 66°
2026-04-30 01:24 18.45570 -65.97921 1126 ft 182 kts 42°
2026-04-30 01:24 18.46724 -65.97382 1960 ft 186 kts
2026-04-30 01:25 18.48004 -65.97644 2566 ft 192 kts 338°
2026-04-30 01:25 18.49232 -65.98240 3183 ft 197 kts 336°
2026-04-30 01:25 18.50562 -65.98893 3395 ft 226 kts 336°
2026-04-30 01:25 18.52068 -65.99629 3541 ft 250 kts 337°
2026-04-30 01:26 18.53598 -66.00639 3681 ft 272 kts 315°
2026-04-30 01:26 18.54567 -66.02351 4242 ft 277 kts 287°
2026-04-30 01:26 18.54936 -66.04352 4864 ft 279 kts 277°
2026-04-30 01:26 18.54820 -66.06388 5401 ft 281 kts 253°
2026-04-30 01:27 18.53875 -66.08166 5985 ft 281 kts 226°
2026-04-30 01:27 18.52268 -66.09295 6802 ft 280 kts 200°
2026-04-30 01:27 18.50379 -66.09868 7565 ft 284 kts 193°
2026-04-30 01:27 18.48446 -66.10382 8373 ft 288 kts 195°
2026-04-30 01:28 18.46516 -66.10990 9181 ft 291 kts 198°
2026-04-30 01:28 18.44579 -66.11699 9815 ft 297 kts 201°
2026-04-30 01:28 18.42653 -66.12483 10164 ft 301 kts 202°
2026-04-30 01:28 18.40661 -66.13351 10532 ft 317 kts 204°
2026-04-30 01:29 18.38587 -66.14292 10869 ft 333 kts 204°
2026-04-30 01:29 18.36391 -66.15315 10967 ft 356 kts 205°
2026-04-30 01:29 18.34112 -66.16395 11278 ft 368 kts 205°
2026-04-30 01:29 18.31770 -66.17515 11882 ft 371 kts 205°
2026-04-30 01:30 18.29377 -66.18665 12500 ft 374 kts 205°
2026-04-30 01:30 18.27073 -66.19876 13043 ft 377 kts 213°
2026-04-30 01:30 18.25031 -66.21600 13635 ft 379 kts 224°
2026-04-30 01:30 18.23185 -66.23636 14195 ft 381 kts 229°
2026-04-30 01:31 18.21464 -66.25714 14762 ft 382 kts 230°
2026-04-30 01:31 18.19729 -66.27846 15315 ft 384 kts 230°
2026-04-30 01:31 18.17982 -66.29978 15878 ft 385 kts 229°
2026-04-30 01:31 18.16018 -66.31881 16379 ft 387 kts 214°
2026-04-30 01:32 18.13618 -66.33191 16905 ft 390 kts 204°
2026-04-30 01:32 18.11078 -66.34231 17462 ft 393 kts 202°
2026-04-30 01:32 18.08525 -66.35265 18007 ft 394 kts 203°
2026-04-30 01:32 18.05983 -66.36377 18512 ft 396 kts 205°
2026-04-30 01:33 18.03466 -66.37561 18972 ft 397 kts 206°
2026-04-30 01:33 18.00959 -66.38802 19414 ft 399 kts 207°
2026-04-30 01:33 17.98457 -66.40077 19851 ft 401 kts 208°
2026-04-30 01:33 17.95942 -66.41378 20171 ft 407 kts 208°
2026-04-30 01:34 17.93376 -66.42715 20272 ft 417 kts 208°
2026-04-30 01:34 17.90745 -66.44088 20521 ft 423 kts 208°
2026-04-30 01:34 17.88102 -66.45467 20914 ft 425 kts 208°
2026-04-30 01:34 17.85476 -66.46835 21329 ft 427 kts 208°
2026-04-30 01:35 17.82775 -66.48241 21901 ft 421 kts 208°
2026-04-30 01:35 17.80219 -66.49568 22790 ft 415 kts 208°
2026-04-30 01:35 17.77624 -66.50918 23253 ft 417 kts 208°
2026-04-30 01:35 17.75021 -66.52273 23663 ft 419 kts 209°
2026-04-30 01:36 17.72399 -66.53637 24011 ft 422 kts 209°
2026-04-30 01:36 17.69761 -66.55009 24372 ft 424 kts 209°
2026-04-30 01:36 17.67116 -66.56384 24726 ft 426 kts 209°
2026-04-30 01:36 17.64446 -66.57771 25070 ft 429 kts 209°
2026-04-30 01:37 17.61758 -66.59167 25400 ft 432 kts 209°
2026-04-30 01:37 17.59058 -66.60569 25767 ft 434 kts 210°
2026-04-30 01:37 17.56340 -66.61979 26112 ft 437 kts 210°
2026-04-30 01:37 17.53605 -66.63398 26459 ft 439 kts 210°
2026-04-30 01:38 17.50858 -66.64822 26802 ft 442 kts 210°
2026-04-30 01:38 17.48093 -66.66255 27144 ft 444 kts 210°
2026-04-30 01:38 17.45314 -66.67695 27492 ft 447 kts 210°
2026-04-30 01:38 17.42518 -66.69142 27841 ft 449 kts 211°
2026-04-30 01:39 17.39703 -66.70596 28196 ft 452 kts 211°
2026-04-30 01:39 17.36879 -66.72055 28548 ft 454 kts 211°
2026-04-30 01:39 17.34074 -66.73505 28880 ft 457 kts 211°
2026-04-30 01:39 17.31213 -66.74984 29190 ft 461 kts 211°
2026-04-30 01:40 17.28327 -66.76476 29528 ft 463 kts 211°
2026-04-30 01:40 17.25395 -66.77991 29870 ft 464 kts 211°
2026-04-30 01:40 17.22547 -66.79460 30191 ft 463 kts 211°
2026-04-30 01:40 17.19662 -66.80949 30519 ft 461 kts 212°
2026-04-30 01:41 17.16786 -66.82432 30846 ft 459 kts 212°
2026-04-30 01:41 17.13922 -66.83909 31174 ft 458 kts 212°
2026-04-30 01:41 17.11077 -66.85376 31484 ft 456 kts 212°
2026-04-30 01:41 17.08237 -66.86840 31801 ft 454 kts 212°
2026-04-30 01:42 17.05408 -66.88300 31953 ft 454 kts 212°
2026-04-30 01:42 17.02560 -66.89770 31966 ft 459 kts 212°
2026-04-30 01:42 16.96816 -66.92733 31989 ft 461 kts 212°
2026-04-30 01:43 16.91068 -66.95691 31985 ft 461 kts 212°
2026-04-30 01:43 16.85308 -66.98653 31984 ft 461 kts 212°
2026-04-30 01:44 16.79486 -67.01651 31982 ft 471 kts 212°
2026-04-30 01:44 16.73621 -67.04665 31984 ft 474 kts 212°
2026-04-30 01:45 16.67698 -67.07701 31982 ft 475 kts 212°
2026-04-30 01:45 16.61767 -67.10735 31980 ft 475 kts 212°
2026-04-30 01:46 16.55838 -67.13771 31986 ft 474 kts 212°
2026-04-30 01:46 16.49913 -67.16806 31981 ft 474 kts 212°
2026-04-30 01:47 16.43979 -67.19845 31981 ft 474 kts 212°
2026-04-30 01:47 16.38048 -67.22880 31978 ft 475 kts 212°
2026-04-30 01:48 16.32111 -67.25915 31985 ft 475 kts 212°
2026-04-30 01:48 16.26174 -67.28948 31989 ft 475 kts 212°
2026-04-30 01:49 16.20235 -67.31980 31976 ft 475 kts 212°
2026-04-30 01:49 16.14296 -67.35010 31979 ft 475 kts 212°
2026-04-30 01:50 16.08350 -67.38043 31979 ft 477 kts 212°
2026-04-30 01:50 16.02389 -67.41081 31975 ft 477 kts 212°
2026-04-30 01:51 15.96409 -67.44101 31984 ft 478 kts 210°
2026-04-30 01:51 15.90273 -67.46836 31973 ft 481 kts 208°
2026-04-30 01:52 15.84070 -67.49439 31979 ft 481 kts 207°
2026-04-30 01:52 15.77895 -67.52038 31973 ft 482 kts 207°
2026-04-30 01:53 15.71679 -67.54675 31975 ft 482 kts 208°
2026-04-30 01:53 15.65477 -67.57311 31974 ft 481 kts 208°
2026-04-30 01:54 15.59275 -67.59946 31973 ft 481 kts 208°
2026-04-30 01:54 15.53074 -67.62579 31967 ft 481 kts 208°
2026-04-30 01:55 15.46868 -67.65213 31967 ft 482 kts 207°
2026-04-30 01:55 15.40645 -67.67851 31964 ft 483 kts 207°
2026-04-30 01:56 15.34431 -67.70482 31966 ft 483 kts 207°
2026-04-30 01:56 15.28208 -67.73117 31964 ft 483 kts 207°
2026-04-30 01:57 15.21987 -67.75749 31965 ft 483 kts 207°
2026-04-30 01:57 15.15798 -67.78363 31959 ft 484 kts 207°
2026-04-30 01:58 15.09563 -67.80994 31963 ft 484 kts 207°
2026-04-30 01:58 15.03316 -67.83630 31960 ft 484 kts 207°
2026-04-30 01:59 14.94966 -67.87154 31960 ft 484 kts 207°
2026-04-30 02:00 14.87712 -67.90212 31962 ft 484 kts 207°
2026-04-30 02:00 14.82471 -67.92421 31961 ft 487 kts 207°
2026-04-30 02:01 14.76242 -67.95044 31961 ft 487 kts 207°
2026-04-30 02:01 14.69958 -67.97689 31958 ft 487 kts 206°
2026-04-30 02:02 14.63675 -68.00319 31954 ft 487 kts 206°
2026-04-30 02:02 14.57392 -68.02940 31955 ft 487 kts 206°
2026-04-30 02:03 14.51102 -68.05566 31952 ft 488 kts 206°
2026-04-30 02:03 14.44797 -68.08196 31954 ft 488 kts 206°
2026-04-30 02:04 14.38529 -68.10808 31954 ft 488 kts 206°
2026-04-30 02:04 14.32224 -68.13436 31951 ft 488 kts 206°
2026-04-30 02:05 14.25922 -68.16060 31953 ft 488 kts 206°
2026-04-30 02:05 14.19618 -68.18684 31956 ft 489 kts 205°
2026-04-30 02:06 14.13307 -68.21310 31948 ft 489 kts 206°
2026-04-30 02:06 14.06998 -68.23937 31948 ft 489 kts 206°
2026-04-30 02:07 14.00691 -68.26562 31944 ft 489 kts 206°
2026-04-30 02:07 13.94385 -68.29186 31943 ft 489 kts 206°
2026-04-30 02:08 13.88122 -68.31790 31938 ft 490 kts 205°
2026-04-30 02:08 13.81798 -68.34417 31938 ft 490 kts 205°
2026-04-30 02:09 13.75471 -68.37037 31940 ft 490 kts 205°
2026-04-30 02:09 13.69143 -68.39656 31938 ft 490 kts 205°
2026-04-30 02:10 13.62816 -68.42274 31937 ft 490 kts 205°
2026-04-30 02:10 13.56484 -68.44893 31938 ft 490 kts 205°
2026-04-30 02:11 13.50160 -68.47507 31937 ft 490 kts 205°
2026-04-30 02:11 13.43827 -68.50124 31936 ft 490 kts 205°
2026-04-30 02:12 13.37500 -68.52745 31935 ft 490 kts 205°
2026-04-30 02:12 13.31219 -68.55356 31936 ft 489 kts 205°
2026-04-30 02:13 13.24906 -68.57982 31924 ft 491 kts 204°
2026-04-30 02:13 13.18546 -68.60626 31930 ft 494 kts 204°
2026-04-30 02:14 13.12165 -68.63274 31926 ft 494 kts 204°
2026-04-30 02:14 13.05791 -68.65919 31925 ft 494 kts 204°
2026-04-30 02:15 12.99410 -68.68565 31925 ft 494 kts 204°
2026-04-30 02:15 12.93035 -68.71208 31922 ft 494 kts 204°
2026-04-30 02:16 12.86670 -68.73844 31916 ft 493 kts 204°
2026-04-30 02:16 12.80307 -68.76479 31916 ft 493 kts 204°
2026-04-30 02:17 12.73935 -68.79116 31917 ft 493 kts 204°
2026-04-30 02:17 12.67608 -68.81733 31916 ft 493 kts 204°
2026-04-30 02:18 12.61248 -68.84360 31904 ft 493 kts 204°
2026-04-30 02:18 12.54882 -68.86987 31909 ft 492 kts 204°
2026-04-30 02:19 12.48543 -68.89602 31918 ft 491 kts 204°
2026-04-30 02:19 12.42208 -68.92217 31920 ft 491 kts 204°
2026-04-30 02:20 12.35871 -68.94831 31927 ft 491 kts 204°
2026-04-30 02:20 12.29538 -68.97443 31936 ft 491 kts 204°
2026-04-30 02:21 12.23250 -69.00034 31938 ft 489 kts 204°
2026-04-30 02:21 12.17123 -69.03030 31938 ft 486 kts 214°
2026-04-30 02:22 12.11883 -69.07366 31933 ft 485 kts 223°
2026-04-30 02:22 12.06924 -69.12044 31932 ft 485 kts 223°
2026-04-30 02:23 12.01873 -69.16625 31930 ft 486 kts 222°
2026-04-30 02:23 11.96751 -69.21128 31927 ft 485 kts 221°
2026-04-30 02:24 11.91612 -69.25610 31924 ft 485 kts 221°
2026-04-30 02:24 11.86496 -69.30053 31922 ft 485 kts 220°
2026-04-30 02:25 11.81349 -69.34519 31922 ft 485 kts 221°
2026-04-30 02:25 11.76201 -69.38987 31923 ft 486 kts 221°
2026-04-30 02:26 11.71053 -69.43454 31919 ft 486 kts 221°
2026-04-30 02:26 11.65902 -69.47922 31922 ft 486 kts 220°
2026-04-30 02:27 11.60738 -69.52399 31923 ft 490 kts 220°
2026-04-30 02:27 11.55544 -69.56898 31925 ft 489 kts 220°
2026-04-30 02:28 11.50368 -69.61381 31925 ft 488 kts 220°
2026-04-30 02:28 11.45191 -69.65862 31925 ft 488 kts 220°
2026-04-30 02:29 11.40068 -69.70350 31925 ft 488 kts 221°
2026-04-30 02:29 11.35039 -69.74995 31925 ft 488 kts 222°
2026-04-30 02:30 11.30037 -69.79678 31915 ft 490 kts 223°
2026-04-30 02:30 11.24996 -69.84383 31920 ft 491 kts 223°
2026-04-30 02:31 11.19948 -69.89080 31917 ft 492 kts 222°
2026-04-30 02:31 11.14880 -69.93791 31916 ft 493 kts 222°
2026-04-30 02:32 11.09813 -69.98497 31921 ft 493 kts 222°
2026-04-30 02:32 11.04743 -70.03209 31930 ft 493 kts 222°
2026-04-30 02:33 10.99679 -70.07931 31922 ft 493 kts 222°
2026-04-30 02:33 10.94612 -70.12659 31922 ft 495 kts 223°
2026-04-30 02:34 10.89533 -70.17396 31927 ft 495 kts 223°
2026-04-30 02:34 10.84486 -70.22101 31924 ft 495 kts 223°
2026-04-30 02:35 10.79412 -70.26828 31932 ft 495 kts 223°
2026-04-30 02:35 10.74334 -70.31557 31933 ft 495 kts 223°
2026-04-30 02:36 10.69252 -70.36290 31930 ft 495 kts 223°
2026-04-30 02:36 10.64176 -70.41029 31932 ft 495 kts 223°
2026-04-30 02:37 10.59115 -70.45729 31931 ft 495 kts 223°
2026-04-30 02:37 10.54024 -70.50447 31929 ft 495 kts 223°
2026-04-30 02:38 10.48928 -70.55168 31929 ft 495 kts 223°
2026-04-30 02:38 10.43833 -70.59887 31930 ft 496 kts 223°
2026-04-30 02:39 10.38733 -70.64608 31924 ft 496 kts 223°
2026-04-30 02:39 10.33640 -70.69321 31925 ft 496 kts 222°
2026-04-30 02:40 10.28534 -70.74040 31927 ft 496 kts 222°
2026-04-30 02:40 10.23435 -70.78753 31916 ft 496 kts 222°
2026-04-30 02:41 10.18332 -70.83468 31918 ft 496 kts 222°
2026-04-30 02:41 10.13231 -70.88180 31905 ft 496 kts 223°
2026-04-30 02:42 10.08162 -70.92859 31906 ft 495 kts 223°
2026-04-30 02:42 10.03069 -70.97561 31906 ft 495 kts 223°
2026-04-30 02:43 9.97968 -71.02268 31887 ft 497 kts 223°
2026-04-30 02:43 9.92843 -71.06996 31886 ft 498 kts 223°
2026-04-30 02:44 9.87723 -71.11717 31885 ft 498 kts 223°
2026-04-30 02:44 9.82592 -71.16445 31885 ft 498 kts 223°
2026-04-30 02:45 9.77475 -71.21167 31882 ft 498 kts 223°
2026-04-30 02:45 9.72355 -71.25908 31886 ft 498 kts 223°
2026-04-30 02:46 9.67246 -71.30641 31882 ft 498 kts 223°
2026-04-30 02:46 9.62130 -71.35379 31884 ft 498 kts 223°
2026-04-30 02:47 9.57021 -71.40107 31886 ft 497 kts 223°
2026-04-30 02:47 9.51943 -71.44805 31888 ft 497 kts 223°
2026-04-30 02:48 9.46829 -71.49533 31885 ft 496 kts 223°
2026-04-30 02:48 9.41729 -71.54246 31886 ft 496 kts 223°
2026-04-30 02:49 9.37494 -71.58159 31883 ft 495 kts 223°
2026-04-30 02:49 9.32405 -71.62858 31888 ft 495 kts 223°
2026-04-30 02:50 9.27321 -71.67552 31887 ft 495 kts 223°
2026-04-30 02:50 9.22234 -71.72246 31886 ft 494 kts 223°
2026-04-30 02:51 9.17152 -71.76932 31893 ft 494 kts 223°
2026-04-30 02:51 9.12071 -71.81610 31893 ft 493 kts 223°
2026-04-30 02:52 9.07023 -71.86259 31893 ft 493 kts 223°
2026-04-30 02:52 9.01949 -71.90930 31895 ft 492 kts 222°
2026-04-30 02:53 8.96366 -71.94944 31894 ft 493 kts 211°
2026-04-30 02:53 8.90345 -71.98288 31892 ft 493 kts 209°
2026-04-30 02:54 8.84310 -72.01583 31893 ft 493 kts 209°
2026-04-30 02:54 8.78309 -72.04947 31901 ft 492 kts 210°
2026-04-30 02:55 8.72378 -72.08314 31898 ft 492 kts 210°
2026-04-30 02:55 8.66411 -72.11705 31895 ft 491 kts 210°
2026-04-30 02:56 8.60452 -72.15088 31905 ft 491 kts 210°
2026-04-30 02:56 8.54497 -72.18464 31904 ft 490 kts 210°
2026-04-30 02:57 8.48572 -72.21822 31927 ft 490 kts 210°
2026-04-30 02:57 8.42594 -72.25208 31928 ft 490 kts 210°
2026-04-30 02:58 8.36652 -72.28574 31933 ft 489 kts 210°
2026-04-30 02:58 8.30690 -72.31891 31931 ft 490 kts 207°
2026-04-30 02:59 8.24534 -72.34872 31934 ft 491 kts 205°
2026-04-30 02:59 8.18309 -72.37735 31960 ft 491 kts 205°
2026-04-30 03:00 8.12132 -72.40592 31966 ft 491 kts 205°
2026-04-30 03:00 8.05933 -72.43498 31963 ft 491 kts 205°
2026-04-30 03:01 7.99754 -72.46447 31966 ft 491 kts 205°
2026-04-30 03:01 7.93565 -72.49381 31966 ft 491 kts 205°
2026-04-30 03:02 7.87373 -72.52295 31967 ft 491 kts 205°
2026-04-30 03:02 7.81180 -72.55204 31973 ft 491 kts 205°
2026-04-30 03:03 7.74984 -72.58114 31987 ft 491 kts 205°
2026-04-30 03:03 7.65699 -72.62473 32055 ft 491 kts 205°
2026-04-30 03:04 7.59479 -72.65393 32056 ft 492 kts 205°
2026-04-30 03:04 7.53275 -72.68304 32085 ft 492 kts 205°
2026-04-30 03:05 7.47064 -72.71215 32086 ft 492 kts 205°
2026-04-30 03:05 7.40854 -72.74126 32087 ft 492 kts 205°
2026-04-30 03:06 7.34687 -72.77017 32108 ft 492 kts 205°
2026-04-30 03:06 7.28476 -72.79928 32111 ft 492 kts 205°
2026-04-30 03:07 7.22263 -72.82839 32079 ft 493 kts 205°
2026-04-30 03:07 7.16035 -72.85756 32080 ft 494 kts 205°
2026-04-30 03:08 7.09810 -72.88670 32080 ft 494 kts 205°
2026-04-30 03:08 7.03575 -72.91589 32080 ft 494 kts 205°
2026-04-30 03:09 6.97347 -72.94503 32071 ft 493 kts 205°
2026-04-30 03:09 6.91111 -72.97420 32030 ft 494 kts 205°
2026-04-30 03:10 6.84917 -73.00317 32029 ft 494 kts 205°
2026-04-30 03:10 6.78687 -73.03230 32020 ft 494 kts 205°
2026-04-30 03:11 6.72446 -73.06144 32018 ft 494 kts 205°
2026-04-30 03:11 6.66213 -73.09056 32021 ft 494 kts 205°
2026-04-30 03:12 6.59979 -73.11968 32018 ft 494 kts 205°
2026-04-30 03:12 6.53742 -73.14880 32027 ft 495 kts 205°
2026-04-30 03:13 6.47473 -73.17807 32025 ft 497 kts 205°
2026-04-30 03:13 6.41196 -73.20737 32028 ft 497 kts 205°
2026-04-30 03:14 6.34914 -73.23668 32043 ft 497 kts 205°
2026-04-30 03:14 6.28635 -73.26597 32043 ft 497 kts 205°
2026-04-30 03:15 6.22359 -73.29524 32062 ft 497 kts 205°
2026-04-30 03:15 6.16106 -73.32439 32066 ft 493 kts 205°
2026-04-30 03:16 6.09921 -73.35323 32087 ft 492 kts 205°
2026-04-30 03:16 6.03707 -73.38219 32082 ft 492 kts 205°
2026-04-30 03:17 5.97497 -73.41110 32117 ft 492 kts 205°
2026-04-30 03:17 5.91308 -73.43991 32114 ft 488 kts 205°
2026-04-30 03:18 5.85206 -73.46832 32119 ft 487 kts 205°
2026-04-30 03:18 5.79259 -73.49928 32147 ft 486 kts 213°
2026-04-30 03:19 5.73814 -73.53885 32152 ft 486 kts 218°
2026-04-30 03:19 5.68463 -73.58052 32173 ft 486 kts 218°
2026-04-30 03:20 5.63141 -73.62123 32016 ft 467 kts 217°
2026-04-30 03:20 5.60572 -73.64062 31605 ft 463 kts 217°
2026-04-30 03:20 5.57997 -73.65996 31016 ft 462 kts 217°
2026-04-30 03:21 5.55444 -73.67911 30426 ft 453 kts 216°
2026-04-30 03:21 5.52945 -73.69786 29767 ft 445 kts 216°
2026-04-30 03:21 5.50489 -73.71629 29135 ft 437 kts 216°
2026-04-30 03:21 5.48050 -73.73459 28545 ft 438 kts 215°
2026-04-30 03:22 5.45599 -73.75300 27960 ft 442 kts 216°
2026-04-30 03:22 5.43230 -73.77268 27376 ft 444 kts 223°
2026-04-30 03:22 5.41241 -73.79625 26777 ft 440 kts 236°
2026-04-30 03:22 5.39848 -73.82362 26189 ft 443 kts 247°
2026-04-30 03:23 5.38801 -73.85290 25597 ft 448 kts 251°
2026-04-30 03:23 5.37867 -73.88317 25056 ft 454 kts 252°
2026-04-30 03:23 5.36972 -73.91283 24702 ft 439 kts 251°
2026-04-30 03:23 5.36083 -73.94147 24513 ft 420 kts 250°
2026-04-30 03:24 5.35219 -73.96837 24393 ft 403 kts 250°
2026-04-30 03:24 5.34395 -73.99330 24279 ft 399 kts 249°
2026-04-30 03:24 5.33526 -74.01916 24161 ft 397 kts 249°
2026-04-30 03:24 5.32666 -74.04449 23526 ft 400 kts 249°
2026-04-30 03:25 5.31768 -74.07085 22838 ft 398 kts 249°
2026-04-30 03:25 5.30878 -74.09695 22177 ft 395 kts 249°
2026-04-30 03:25 5.29992 -74.12297 21557 ft 392 kts 250°
2026-04-30 03:25 5.29114 -74.14873 20956 ft 389 kts 250°
2026-04-30 03:26 5.28244 -74.17429 20357 ft 386 kts 250°
2026-04-30 03:26 5.27380 -74.19967 19803 ft 383 kts 250°
2026-04-30 03:26 5.26524 -74.22483 19339 ft 376 kts 250°
2026-04-30 03:26 5.25689 -74.24935 19005 ft 367 kts 250°
2026-04-30 03:27 5.24873 -74.27334 18670 ft 359 kts 250°
2026-04-30 03:27 5.24075 -74.29677 18398 ft 350 kts 250°
2026-04-30 03:27 5.23492 -74.31991 18201 ft 336 kts 264°
2026-04-30 03:27 5.23434 -74.34316 18172 ft 333 kts 272°
2026-04-30 03:28 5.23571 -74.36601 18149 ft 332 kts 274°
2026-04-30 03:28 5.23766 -74.38940 18135 ft 333 kts 275°
2026-04-30 03:28 5.23968 -74.41254 18145 ft 333 kts 275°
2026-04-30 03:28 5.24162 -74.43538 18139 ft 333 kts 275°
2026-04-30 03:29 5.24227 -74.45854 18128 ft 332 kts 262°
2026-04-30 03:29 5.23718 -74.48149 18161 ft 346 kts 252°
2026-04-30 03:29 5.22934 -74.50449 18139 ft 350 kts 248°
2026-04-30 03:29 5.22070 -74.52737 18132 ft 351 kts 248°
2026-04-30 03:30 5.21192 -74.55021 18103 ft 351 kts 248°
2026-04-30 03:30 5.20316 -74.57316 18097 ft 352 kts 248°
2026-04-30 03:30 5.19258 -74.59518 18074 ft 349 kts 233°
2026-04-30 03:30 5.17720 -74.61386 18066 ft 347 kts 224°
2026-04-30 03:31 5.16028 -74.63059 18050 ft 346 kts 221°
2026-04-30 03:31 5.14306 -74.64667 18036 ft 347 kts 220°
2026-04-30 03:31 5.12545 -74.66304 18024 ft 338 kts 221°
2026-04-30 03:31 5.10871 -74.67874 18007 ft 320 kts 221°
2026-04-30 03:32 5.09262 -74.69381 18012 ft 315 kts 218°
2026-04-30 03:32 5.07450 -74.70558 18017 ft 308 kts 201°
2026-04-30 03:32 5.05450 -74.71331 18029 ft 308 kts 195°
2026-04-30 03:32 5.03412 -74.71985 18032 ft 307 kts 194°
2026-04-30 03:33 5.01375 -74.72606 18044 ft 307 kts 193°
2026-04-30 03:33 4.99283 -74.73002 18033 ft 303 kts 179°
2026-04-30 03:33 4.97223 -74.72767 17966 ft 296 kts 158°
2026-04-30 03:33 4.95444 -74.71803 17928 ft 290 kts 137°
2026-04-30 03:34 4.94177 -74.70259 17876 ft 286 kts 116°
2026-04-30 03:34 4.93556 -74.68381 17799 ft 285 kts 99°
2026-04-30 03:34 4.93324 -74.66405 17607 ft 282 kts 95°
2026-04-30 03:34 4.93186 -74.64435 17440 ft 285 kts 94°
2026-04-30 03:35 4.93143 -74.63786 17216 ft 287 kts 94°